E24CR-1 Weather Reports


Display with metric or nautical units.
time (UTC)temp
F
wind
direction
speed
MPH
gust
MPH
rain 1hr
in
rain 24hr
in
rain mn
in
humidity
%
barometer
mb
20260510122842 72 0 0.0 0.0 0.00 0.00 0.00 99 954.0
20260510121813 72 0 0.0 0.0 0.00 0.00 0.00 99 953.0
20260510120747 75 0 0.0 0.0 0.00 0.00 0.00 85 952.0
20260510115721 79 0 0.0 0.0 0.00 0.00 0.00 80 952.0
20260510114656 80 0 0.0 0.0 0.00 0.00 0.00 74 951.0
20260510113631 80 0 0.0 0.0 0.00 0.00 0.00 73 951.0
20260510112605 80 0 0.0 0.0 0.00 0.00 0.00 73 951.0
20260510111540 81 0 0.0 0.0 0.00 0.00 0.00 74 951.0
20260510110515 81 0 0.0 0.0 0.00 0.00 0.00 73 951.0
20260510105450 81 0 0.0 0.0 0.00 0.00 0.00 71 951.0
20260510104425 81 0 0.0 0.0 0.00 0.00 0.00 73 951.0
20260510103401 81 0 0.0 0.0 0.00 0.00 0.00 75 950.0
20260510102335 81 0 0.0 0.0 0.00 0.00 0.00 73 950.0
20260510101310 81 0 0.0 0.0 0.00 0.00 0.00 74 950.0
20260510100246 81 0 0.0 0.0 0.00 0.00 0.00 76 950.0
20260510095221 81 0 0.0 0.0 0.00 0.00 0.00 74 950.0
20260510094156 82 0 0.0 0.0 0.00 0.00 0.00 73 950.0
20260510093130 82 0 0.0 0.0 0.00 0.00 0.00 70 950.0
20260510092105 83 0 0.0 0.0 0.00 0.00 0.00 68 950.0
20260510091040 83 0 0.0 0.0 0.00 0.00 0.00 69 950.0
20260510090015 82 0 0.0 0.0 0.00 0.00 0.00 67 950.0
20260510084949 82 0 0.0 0.0 0.00 0.00 0.00 64 950.0
20260510083925 84 0 0.0 0.0 0.00 0.00 0.00 62 950.0
20260510082859 82 0 0.0 0.0 0.00 0.00 0.00 70 950.0
20260510081834 83 0 0.0 0.0 0.00 0.00 0.00 64 950.0
20260510080809 87 0 0.0 0.0 0.00 0.00 0.00 61 950.0
20260510075745 90 0 0.0 0.0 0.00 0.00 0.00 52 949.0
20260510074720 94 0 0.0 0.0 0.00 0.00 0.00 46 949.0
20260510073655 95 0 0.0 0.0 0.00 0.00 0.00 45 949.0
20260510072629 95 0 0.0 0.0 0.00 0.00 0.00 47 950.0
20260510071605 94 0 0.0 0.0 0.00 0.00 0.00 50 950.0
20260510070539 93 0 0.0 0.0 0.00 0.00 0.00 48 950.0
20260510065514 94 0 0.0 0.0 0.00 0.00 0.00 49 950.0
20260510064448 93 0 0.0 0.0 0.00 0.00 0.00 50 950.0
20260510063423 93 0 0.0 0.0 0.00 0.00 0.00 49 950.0
20260510062359 92 0 0.0 0.0 0.00 0.00 0.00 51 951.0
20260510061333 92 0 0.0 0.0 0.00 0.00 0.00 47 951.0
20260510060309 91 0 0.0 0.0 0.00 0.00 0.00 49 952.0
20260510055245 92 0 0.0 0.0 0.00 0.00 0.00 51 952.0
20260510054220 93 0 0.0 0.0 0.00 0.00 0.00 55 952.0
20260510053154 91 0 0.0 0.0 0.00 0.00 0.00 56 952.0
20260510052129 95 0 0.0 0.0 0.00 0.00 0.00 55 952.0
20260510051104 94 0 0.0 0.0 0.00 0.00 0.00 55 952.0
20260510050040 91 0 0.0 0.0 0.00 0.00 0.00 63 953.0
20260510045014 93 0 0.0 0.0 0.00 0.00 0.00 58 953.0
20260510043946 92 0 0.0 0.0 0.00 0.00 0.00 60 953.0
20260510043526 90 0 0.0 0.0 0.00 0.00 0.00 68 953.0
20260510042501 89 0 0.0 0.0 0.00 0.00 0.00 63 953.0
20260510041436 88 0 0.0 0.0 0.00 0.00 0.00 63 953.0
20260510040409 89 0 0.0 0.0 0.00 0.00 0.00 63 953.0
20260510035344 90 0 0.0 0.0 0.00 0.00 0.00 59 953.0
20260510034319 91 0 0.0 0.0 0.00 0.00 0.00 62 953.0
20260510033254 88 0 0.0 0.0 0.00 0.00 0.00 60 954.0
20260510032225 87 0 0.0 0.0 0.00 0.00 0.00 68 954.0
20260510031200 87 0 0.0 0.0 0.00 0.00 0.00 70 954.0
20260510030135 86 0 0.0 0.0 0.00 0.00 0.00 70 954.0
20260510025109 85 0 0.0 0.0 0.00 0.00 0.00 76 954.0
20260510024043 84 0 0.0 0.0 0.00 0.00 0.00 79 954.0
20260510023019 83 0 0.0 0.0 0.00 0.00 0.00 83 955.0
20260510021953 83 0 0.0 0.0 0.00 0.00 0.00 79 954.0
20260510020928 82 0 0.0 0.0 0.00 0.00 0.00 85 954.0
20260510015903 82 0 0.0 0.0 0.00 0.00 0.00 80 954.0
20260510014838 82 0 0.0 0.0 0.00 0.00 0.00 84 954.0
20260510013811 82 0 0.0 0.0 0.00 0.00 0.00 81 954.0
20260510012746 81 0 0.0 0.0 0.00 0.00 0.00 88 954.0
20260510011721 81 0 0.0 0.0 0.00 0.00 0.00 93 954.0
20260510010656 80 0 0.0 0.0 0.00 0.00 0.00 90 954.0
20260510005631 80 0 0.0 0.0 0.00 0.00 0.00 91 954.0
20260510004605 78 0 0.0 0.0 0.00 0.00 0.00 96 954.0
20260510003540 78 0 0.0 0.0 0.00 0.00 0.00 94 954.0
20260510002516 78 0 0.0 0.0 0.00 0.00 0.00 96 953.0
20260510001451 79 0 0.0 0.0 0.00 0.00 0.00 92 953.0
20260510000422 79 0 0.0 0.0 0.00 0.00 0.00 83 953.0
20260509235356 79 0 0.0 0.0 0.00 0.00 0.00 88 953.0
20260509234330 79 0 0.0 0.0 0.00 0.00 0.00 89 953.0
20260509233305 78 0 0.0 0.0 0.00 0.00 0.00 94 953.0
20260509232240 79 0 0.0 0.0 0.00 0.00 0.00 84 953.0
20260509231215 78 0 0.0 0.0 0.00 0.00 0.00 86 953.0
20260509230150 79 0 0.0 0.0 0.00 0.00 0.00 89 952.0
20260509225126 79 0 0.0 0.0 0.00 0.00 0.00 90 952.0
20260509224101 80 0 0.0 0.0 0.00 0.00 0.00 87 952.0
20260509223036 79 0 0.0 0.0 0.00 0.00 0.00 90 952.0
20260509222002 79 0 0.0 0.0 0.00 0.00 0.00 91 952.0
20260509220937 79 0 0.0 0.0 0.00 0.00 0.00 92 952.0
20260509215912 79 0 0.0 0.0 0.00 0.00 0.00 91 952.0
20260509215542 79 0 0.0 0.0 0.00 0.00 0.00 90 952.0
20260509214518 79 0 0.0 0.0 0.00 0.00 0.00 93 952.0
20260509213452 78 0 0.0 0.0 0.00 0.00 0.00 95 952.0
20260509212426 79 0 0.0 0.0 0.00 0.00 0.00 91 952.0
20260509211401 79 0 0.0 0.0 0.00 0.00 0.00 91 952.0
20260509210336 79 0 0.0 0.0 0.00 0.00 0.00 93 952.0
20260509205310 79 0 0.0 0.0 0.00 0.00 0.00 93 952.0
20260509204245 79 0 0.0 0.0 0.00 0.00 0.00 96 952.0
20260509203219 79 0 0.0 0.0 0.00 0.00 0.00 94 952.0
20260509202155 81 0 0.0 0.0 0.00 0.00 0.00 85 952.0
20260509201129 81 0 0.0 0.0 0.00 0.00 0.00 83 952.0
20260509200103 82 0 0.0 0.0 0.00 0.00 0.00 82 952.0
20260509195038 81 0 0.0 0.0 0.00 0.00 0.00 86 952.0
20260509194012 79 0 0.0 0.0 0.00 0.00 0.00 94 952.0
20260509192948 81 0 0.0 0.0 0.00 0.00 0.00 88 952.0
20260509191923 81 0 0.0 0.0 0.00 0.00 0.00 87 952.0
20260509190857 84 0 0.0 0.0 0.00 0.00 0.00 78 952.0
20260509185832 84 0 0.0 0.0 0.00 0.00 0.00 80 952.0
20260509184807 84 0 0.0 0.0 0.00 0.00 0.00 79 953.0
20260509183742 83 0 0.0 0.0 0.00 0.00 0.00 84 953.0
20260509182717 81 0 0.0 0.0 0.00 0.00 0.00 91 953.0
20260509181652 83 0 0.0 0.0 0.00 0.00 0.00 85 953.0
20260509180628 83 0 0.0 0.0 0.00 0.00 0.00 83 953.0
20260509175603 82 0 0.0 0.0 0.00 0.00 0.00 86 953.0
20260509174538 83 0 0.0 0.0 0.00 0.00 0.00 81 953.0
20260509173514 83 0 0.0 0.0 0.00 0.00 0.00 82 953.0
20260509172449 84 0 0.0 0.0 0.00 0.00 0.00 79 953.0
20260509171424 84 0 0.0 0.0 0.00 0.00 0.00 77 953.0
20260509170357 85 0 0.0 0.0 0.00 0.00 0.00 74 953.0
20260509170204 85 0 0.0 0.0 0.00 0.00 0.00 74 953.0
20260509165138 85 0 0.0 0.0 0.00 0.00 0.00 75 954.0
20260509164113 84 0 0.0 0.0 0.00 0.00 0.00 75 954.0
20260509163047 84 0 0.0 0.0 0.00 0.00 0.00 77 954.0
20260509162023 84 0 0.0 0.0 0.00 0.00 0.00 77 954.0
20260509160959 84 0 0.0 0.0 0.00 0.00 0.00 80 954.0
20260509155933 84 0 0.0 0.0 0.00 0.00 0.00 78 954.0
20260509154908 84 0 0.0 0.0 0.00 0.00 0.00 77 954.0
20260509153843 84 0 0.0 0.0 0.00 0.00 0.00 77 954.0
20260509152819 84 0 0.0 0.0 0.00 0.00 0.00 78 954.0
20260509151753 83 0 0.0 0.0 0.00 0.00 0.00 81 954.0
20260509150727 82 0 0.0 0.0 0.00 0.00 0.00 84 954.0
20260509145702 81 0 0.0 0.0 0.00 0.00 0.00 92 953.0
20260509144637 81 0 0.0 0.0 0.00 0.00 0.00 92 953.0
20260509143612 80 0 0.0 0.0 0.00 0.00 0.00 95 953.0
20260509142548 80 0 0.0 0.0 0.00 0.00 0.00 94 953.0
20260509141522 81 0 0.0 0.0 0.00 0.00 0.00 95 953.0
20260509140458 80 0 0.0 0.0 0.00 0.00 0.00 94 953.0
20260509135433 80 0 0.0 0.0 0.00 0.00 0.00 95 953.0
20260509134404 80 0 0.0 0.0 0.00 0.00 0.00 90 953.0
20260509133334 83 0 0.0 0.0 0.00 0.00 0.00 82 953.0
20260509132309 82 0 0.0 0.0 0.00 0.00 0.00 86 953.0
20260509131244 83 0 0.0 0.0 0.00 0.00 0.00 82 952.0
20260509130218 80 0 0.0 0.0 0.00 0.00 0.00 98 952.0
20260509125154 80 0 0.0 0.0 0.00 0.00 0.00 99 952.0
20260509124128 79 0 0.0 0.0 0.00 0.00 0.00 99 952.0